{"data":{"norad_id":53825,"intl_designator":"2022-114H","name":"STARLINK-4751","alt_names":[],"object_type":"PAYLOAD","status":"ACTIVE","operator":null,"country":"US","launch_date":"2022-09-19","launch_site_code":"AFETR","launch_vehicle":null,"mission":null,"orbit_class":"UNKNOWN","rcs_meters":null,"size_class":null,"mass_kg":null,"dimensions":null,"purposes":["comms"],"wikipedia_slug":null,"has_3d_model":false,"image_url":null,"decayed_at":null,"tle_current":{"epoch":"2026-05-24T21:27:21.538656Z","epoch_age_seconds":94932,"freshness":"FRESH","line1":"1 53825U 22114H   26144.89399929  .00002085  00000+0  14900-3 0  9999","line2":"2 53825  53.2146 322.1682 0001110  94.2259 265.8860 15.08852030204333","mean_motion":15.0885203,"eccentricity":0.000111,"inclination_deg":53.2146,"raan_deg":322.1682,"arg_perigee_deg":94.2259,"mean_anomaly_deg":265.886,"bstar":0.000149,"rev_number":20433,"period_min":95.436793759028,"perigee_km":538.93873766946,"apogee_km":540.47449895272,"semimajor_km":6917.8436183111,"source":"CELESTRAK","updated_at":"2026-05-25T13:38:17.570394Z"}}}